This is the latest recevied weather packets stored in our database for station/object KB9ZGZ. If no packets are shown the sender has not sent any weather packets the latest 10 day(s).
| Time | Temp. | Humidity | Pressure | Rain* | Wind** | Luminosity | Snow |
|---|---|---|---|---|---|---|---|
| 1777734919 | 10.56° C | 66% | 1015.6 hPa | 0.25 mm | - | - | - |
| 1777734022 | 10.56° C | 65% | 1015.7 hPa | 0.25 mm | - | - | - |
| 1777733119 | 10° C | 66% | 1015.7 hPa | 0.25 mm | - | - | - |
| 1777732223 | 10.56° C | 66% | 1015.6 hPa | 0.25 mm | - | - | - |
| 1777731332 | 10° C | 69% | 1015.5 hPa | 0.25 mm | - | - | - |
| 1777730413 | 9.44° C | 68% | 1015.2 hPa | 0.25 mm | - | - | - |
| 1777729518 | 8.89° C | 69% | 1015.2 hPa | 0.25 mm | - | - | - |
| 1777728611 | 8.33° C | 76% | 1015.2 hPa | 0.25 mm | - | - | - |
| 1777727727 | 7.78° C | 76% | 1014.9 hPa | 0.25 mm | - | - | - |
| 1777727726 | 7.78° C | 76% | 1014.9 hPa | 0.25 mm | - | - | - |
| 1777726808 | 7.78° C | 79% | 1014.7 hPa | 0.25 mm | - | - | - |
| 1777725907 | 7.22° C | 80% | 1014.6 hPa | 0.25 mm | - | - | - |
| 1777725907 | 7.22° C | 80% | 1014.6 hPa | 0.25 mm | - | - | - |
| 1777725007 | 7.22° C | 81% | 1014.5 hPa | 0.25 mm | - | - | - |
| 1777724115 | 6.67° C | 83% | 1014.5 hPa | 0.25 mm | - | - | - |
| 1777723265 | 6.67° C | 83% | 1014.4 hPa | 0.25 mm | - | - | - |
| 1777722359 | 6.67° C | 84% | 1014.2 hPa | 0.25 mm | - | - | - |
| 1777721459 | 6.67° C | 84% | 1014.1 hPa | 0.25 mm | - | - | - |
| 1777720566 | 7.22° C | 85% | 1014 hPa | 0.25 mm | - | - | - |
| 1777719652 | 7.22° C | 85% | 1013.8 hPa | 0.25 mm | - | - | - |
| 1777718753 | 7.22° C | 84% | 1013.7 hPa | 0.25 mm | - | - | - |
| 1777717866 | 7.78° C | 84% | 1013.7 hPa | 0.25 mm | - | - | - |
| 1777716962 | 7.78° C | 83% | 1013.7 hPa | 0.25 mm | - | - | - |
| 1777716047 | 7.78° C | 84% | 1013.5 hPa | 0.25 mm | - | - | - |
| 1777715148 | 7.78° C | 84% | 1013.5 hPa | 0.25 mm | - | - | - |
* Rain since midnight (hover to see other rain measurements)
** Current wind speed in m/s (hover to see current wind gust speed)